Date,TemperatureHighF,TemperatureAvgF,TemperatureLowF,DewpointHighF,DewpointAvgF,DewpointLowF,HumidityHigh,HumidityAvg,HumidityLow,PressureMaxIn,PressureMinIn,WindSpeedMaxMPH,WindSpeedAvgMPH,GustSpeedMaxMPH,PrecipitationSumIn
2013-1-1,29,21,7,-100,-100,-100,0,0,100,0.00,40.00,0,-999,0,0.00
2013-1-2,17,8,-1,-100,-100,-100,0,0,100,0.00,40.00,0,-999,0,0.00
2013-1-3,18,9,-3,-100,-100,-100,0,0,100,0.00,40.00,0,-999,0,0.00
2013-1-4,30,15,-3,-100,-100,-100,0,0,100,0.00,40.00,0,-999,0,0.00
2013-1-5,32,24,7,-100,-100,-100,0,0,100,0.00,40.00,0,-999,0,0.00
2013-1-6,29,17,5,-100,-100,-100,0,0,100,0.00,40.00,0,-999,0,0.00
2013-1-7,24,15,1,-100,-100,-100,0,0,100,0.00,40.00,0,-999,0,0.00
2013-1-8,38,20,2,-100,-100,-100,0,0,100,0.00,40.00,0,-999,0,0.00
2013-1-9,34,22,7,-100,-100,-100,0,0,100,0.00,40.00,0,-999,0,0.00
2013-1-10,42,35,26,-100,-100,-100,0,0,100,0.00,40.00,0,-999,0,0.00
2013-1-11,34,28,19,-100,-100,-100,0,0,100,0.00,40.00,0,-999,0,0.00
2013-1-12,38,33,31,-100,-100,-100,0,0,100,0.00,40.00,0,-999,0,0.00
2013-1-13,43,37,33,-100,-100,-100,0,0,100,0.00,40.00,0,-999,0,0.00
2013-1-14,47,39,30,-100,-100,-100,0,0,100,0.00,40.00,0,-999,0,0.00
2013-1-15,36,30,27,-100,-100,-100,0,0,100,0.00,40.00,0,-999,0,0.00
2013-1-16,32,29,26,-100,-100,-100,0,0,100,0.00,40.00,0,-999,0,0.00
2013-1-17,37,28,12,-100,-100,-100,0,0,100,0.00,40.00,0,-999,0,0.00
2013-1-18,13,7,-1,-100,-100,-100,0,0,100,0.00,40.00,0,-999,0,0.00
2013-1-19,32,22,-1,-100,-100,-100,0,0,100,0.00,40.00,0,-999,0,0.00
2013-1-20,46,35,24,-100,-100,-100,0,0,100,0.00,40.00,0,-999,0,0.00
2013-1-21,24,18,11,-100,-100,-100,0,0,100,0.00,40.00,0,-999,0,0.00
2013-1-22,17,9,2,-100,-100,-100,0,0,100,0.00,40.00,0,-999,0,0.00
2013-1-23,6,2,-3,-100,-100,-100,0,0,100,0.00,40.00,0,-999,0,0.00
2013-1-24,11,2,-6,-100,-100,-100,0,0,100,0.00,40.00,0,-999,0,0.00
2013-1-25,19,8,1,-100,-100,-100,0,0,100,0.00,40.00,0,-999,0,0.00
2013-1-26,19,12,4,-100,-100,-100,0,0,100,0.00,40.00,0,-999,0,0.00
2013-1-27,21,14,7,-100,-100,-100,0,0,100,0.00,40.00,0,-999,0,0.00
2013-1-28,27,18,6,-100,-100,-100,0,0,100,0.00,40.00,0,-999,0,0.00
2013-1-29,36,25,12,-100,-100,-100,0,0,100,0.00,40.00,0,-999,0,0.00
2013-1-30,53,41,29,-100,-100,-100,0,0,100,0.00,40.00,0,-999,0,0.00
2013-1-31,54,42,31,-100,-100,-100,0,0,100,0.00,40.00,0,-999,0,0.00
2013-2-1,31,24,14,-100,-100,-100,0,0,100,0.00,40.00,0,-999,0,0.00
2013-2-2,25,17,6,-100,-100,-100,0,0,100,0.00,40.00,0,-999,0,0.00
2013-2-3,28,23,20,-100,-100,-100,0,0,100,0.00,40.00,0,-999,0,0.00
2013-2-4,28,21,14,-100,-100,-100,0,0,100,0.00,40.00,0,-999,0,0.00
2013-2-5,21,14,9,-100,-100,-100,0,0,100,0.00,40.00,0,-999,0,0.00
2013-2-6,34,21,7,-100,-100,-100,0,0,100,0.00,40.00,0,-999,0,0.00
2013-2-7,16,10,4,-100,-100,-100,0,0,100,0.00,40.00,0,-999,0,0.00
2013-2-8,18,11,5,-100,-100,-100,0,0,100,0.00,40.00,0,-999,0,0.00
2013-2-9,15,12,9,-100,-100,-100,0,0,100,0.00,40.00,0,-999,0,0.00
2013-2-10,29,17,5,-100,-100,-100,0,0,100,0.00,40.00,0,-999,0,0.00
2013-2-11,34,22,-3,-100,-100,-100,0,0,100,0.00,40.00,0,-999,0,0.00
2013-2-12,41,35,32,-100,-100,-100,0,0,100,0.00,40.00,0,-999,0,0.00
2013-2-13,43,34,28,-100,-100,-100,0,0,100,0.00,40.00,0,-999,0,0.00
2013-2-14,40,30,20,-100,-100,-100,0,0,100,0.00,40.00,0,-999,0,0.00
2013-2-15,43,30,19,-100,-100,-100,0,0,100,0.00,40.00,0,-999,0,0.00
2013-2-16,36,30,25,-100,-100,-100,0,0,100,0.00,40.00,0,-999,0,0.00
2013-2-17,25,21,19,-100,-100,-100,0,0,100,0.00,40.00,0,-999,0,0.00
2013-2-18,29,20,14,-100,-100,-100,0,0,100,0.00,40.00,0,-999,0,0.00
2013-2-19,41,26,10,-100,-100,-100,0,0,100,0.00,40.00,0,-999,0,0.00
2013-2-20,42,36,27,-100,-100,-100,0,0,100,0.00,40.00,0,-999,0,0.00
2013-2-21,33,27,21,-100,-100,-100,0,0,100,0.00,40.00,0,-999,0,0.00
2013-2-22,40,30,22,-100,-100,-100,0,0,100,0.00,40.00,0,-999,0,0.00
2013-2-23,32,27,18,-100,-100,-100,0,0,100,0.00,40.00,0,-999,0,0.00
2013-2-24,30,29,27,-100,-100,-100,0,0,100,0.00,40.00,0,-999,0,0.00
2013-2-25,40,27,19,-100,-100,-100,0,0,100,0.00,40.00,0,-999,0,0.00
2013-2-26,42,30,19,-100,-100,-100,0,0,100,0.00,40.00,0,-999,0,0.00
2013-2-27,38,30,21,-100,-100,-100,0,0,100,0.00,40.00,0,-999,0,0.00
2013-2-28,39,36,31,-100,-100,-100,0,0,100,0.00,40.00,0,-999,0,0.00
2013-3-1,33,32,31,-100,-100,-100,0,0,100,0.00,40.00,0,-999,0,0.00
2013-3-2,36,32,30,-100,-100,-100,0,0,100,0.00,40.00,0,-999,0,0.00
2013-3-3,42,35,32,-100,-100,-100,0,0,100,0.00,40.00,0,-999,0,0.00
2013-3-4,34,33,31,-100,-100,-100,0,0,100,0.00,40.00,0,-999,0,0.00
2013-3-5,42,36,33,-100,-100,-100,0,0,100,0.00,40.00,0,-999,0,0.00
2013-3-6,38,34,32,-100,-100,-100,0,0,100,0.00,40.00,0,-999,0,0.00
2013-3-7,37,34,32,-100,-100,-100,0,0,100,0.00,40.00,0,-999,0,0.00
2013-3-8,46,36,30,-100,-100,-100,0,0,100,0.00,40.00,0,-999,0,0.00
2013-3-9,45,33,25,-100,-100,-100,0,0,100,0.00,40.00,0,-999,0,0.00
2013-3-10,38,29,21,-100,-100,-100,0,0,100,0.00,40.00,0,-999,0,0.00
2013-3-11,45,38,32,-100,-100,-100,0,0,100,0.00,40.00,0,-999,0,0.00
2013-3-12,48,41,36,-100,-100,-100,0,0,100,0.00,40.00,0,-999,0,0.00
2013-3-13,45,40,30,-100,-100,-100,0,0,100,0.00,40.00,0,-999,0,0.00
2013-3-14,40,31,24,-100,-100,-100,0,0,100,0.00,40.00,0,-999,0,0.00
2013-3-15,36,25,17,-100,-100,-100,0,0,100,0.00,40.00,0,-999,0,0.00
2013-3-16,37,27,20,-100,-100,-100,0,0,100,0.00,40.00,0,-999,0,0.00
2013-3-17,32,23,13,-100,-100,-100,0,0,100,0.00,40.00,0,-999,0,0.00
2013-3-18,35,22,7,-100,-100,-100,0,0,100,0.00,40.00,0,-999,0,0.00
2013-3-19,29,26,24,-100,-100,-100,0,0,100,0.00,40.00,0,-999,0,0.00
2013-3-20,35,26,18,-100,-100,-100,0,0,100,0.00,40.00,0,-999,0,0.00
2013-3-21,41,28,15,-100,-100,-100,0,0,100,0.00,40.00,0,-999,0,0.00
2013-3-22,41,27,14,-100,-100,-100,0,0,100,0.00,40.00,0,-999,0,0.00
2013-3-23,41,32,23,-100,-100,-100,0,0,100,0.00,40.00,0,-999,0,0.00
2013-3-24,45,35,27,-100,-100,-100,0,0,100,0.00,40.00,0,-999,0,0.00
2013-3-25,44,34,21,-100,-100,-100,0,0,100,0.00,40.00,0,-999,0,0.00
2013-3-26,45,37,29,-100,-100,-100,0,0,100,0.00,40.00,0,-999,0,0.00
2013-3-27,40,34,27,-100,-100,-100,0,0,100,0.00,40.00,0,-999,0,0.00
2013-3-28,48,37,29,-100,-100,-100,0,0,100,0.00,40.00,0,-999,0,0.00
2013-3-29,54,40,29,-100,-100,-100,0,0,100,0.00,40.00,0,-999,0,0.00
2013-3-30,55,38,27,-100,-100,-100,0,0,100,0.00,40.00,0,-999,0,0.00
2013-3-31,52,35,22,-100,-100,-100,0,0,100,0.00,40.00,0,-999,0,0.00
2013-4-1,51,41,31,-100,-100,-100,0,0,100,0.00,40.00,0,-999,0,0.00
2013-4-2,40,31,26,-100,-100,-100,0,0,100,0.00,40.00,0,-999,0,0.00
2013-4-3,42,32,26,-100,-100,-100,0,0,100,0.00,40.00,0,-999,0,0.00
2013-4-4,53,37,28,-100,-100,-100,0,0,100,0.00,40.00,0,-999,0,0.00
2013-4-5,56,42,30,-100,-100,-100,0,0,100,0.00,40.00,0,-999,0,0.00
2013-4-6,42,32,24,-100,-100,-100,0,0,100,0.00,40.00,0,-999,0,0.00
2013-4-7,45,34,21,-100,-100,-100,0,0,100,0.00,40.00,0,-999,0,0.00
2013-4-8,60,46,32,-100,-100,-100,0,0,100,0.00,40.00,0,-999,0,0.00
2013-4-9,43,38,31,-100,-100,-100,0,0,100,0.00,40.00,0,-999,0,0.00
2013-4-10,54,42,35,-100,-100,-100,0,0,100,0.00,40.00,0,-999,0,0.00
2013-4-11,52,43,35,-100,-100,-100,0,0,100,0.00,40.00,0,-999,0,0.00
2013-4-12,38,34,32,-100,-100,-100,0,0,100,0.00,40.00,0,-999,0,0.00
2013-4-13,43,37,33,-100,-100,-100,0,0,100,0.00,40.00,0,-999,0,0.00
2013-4-14,46,40,33,-100,-100,-100,0,0,100,0.00,40.00,0,-999,0,0.00
2013-4-15,50,39,28,-100,-100,-100,0,0,100,0.00,40.00,0,-999,0,0.00
2013-4-16,55,45,33,-100,-100,-100,0,0,100,0.00,40.00,0,-999,0,0.00
2013-4-17,63,50,35,-100,-100,-100,0,0,100,0.00,40.00,0,-999,0,0.00
2013-4-18,47,39,27,-100,-100,-100,0,0,100,0.00,40.00,0,-999,0,0.00
2013-4-19,67,56,46,-100,-100,-100,0,0,100,0.00,40.00,0,-999,0,0.00
2013-4-20,59,52,42,-100,-100,-100,0,0,100,0.00,40.00,0,-999,0,0.00
2013-4-21,53,40,28,-100,-100,-100,0,0,100,0.00,40.00,0,-999,0,0.00
2013-4-22,49,36,23,-100,-100,-100,0,0,100,0.00,40.00,0,-999,0,0.00
2013-4-23,43,36,26,-100,-100,-100,0,0,100,0.00,40.00,0,-999,0,0.00
2013-4-24,54,47,42,-100,-100,-100,0,0,100,0.00,40.00,0,-999,0,0.00
2013-4-25,63,52,39,-100,-100,-100,0,0,100,0.00,40.00,0,-999,0,0.00
2013-4-26,59,44,29,-100,-100,-100,0,0,100,0.00,40.00,0,-999,0,0.00
2013-4-27,60,43,29,-100,-100,-100,0,0,100,0.00,40.00,0,-999,0,0.00
2013-4-28,63,46,30,-100,-100,-100,0,0,100,0.00,40.00,0,-999,0,0.00
2013-4-29,62,46,30,-100,-100,-100,0,0,100,0.00,40.00,0,-999,0,0.00
2013-4-30,66,48,31,-100,-100,-100,0,0,100,0.00,40.00,0,-999,0,0.00
2013-5-1,70,50,30,-100,-100,-100,0,0,100,0.00,40.00,0,-999,0,0.00
2013-5-2,63,46,34,-100,-100,-100,0,0,100,0.00,40.00,0,-999,0,0.00
2013-5-3,68,48,32,-100,-100,-100,0,0,100,0.00,40.00,0,-999,0,0.00
2013-5-4,64,45,31,-100,-100,-100,0,0,100,0.00,40.00,0,-999,0,0.00
2013-5-5,67,47,30,-100,-100,-100,0,0,100,0.00,40.00,0,-999,0,0.00
2013-5-6,62,47,30,-100,-100,-100,0,0,100,0.00,40.00,0,-999,0,0.00
2013-5-7,77,55,43,-100,-100,-100,0,0,100,0.00,40.00,0,-999,0,0.00
2013-5-8,72,56,42,-100,-100,-100,0,0,100,0.00,40.00,0,-999,0,0.00
2013-5-9,56,53,51,-100,-100,-100,0,0,100,0.00,40.00,0,-999,0,0.00
2013-5-10,69,55,48,-100,-100,-100,0,0,100,0.00,40.00,0,-999,0,0.00
2013-5-11,60,54,48,-100,-100,-100,0,0,100,0.00,40.00,0,-999,0,0.00
2013-5-12,59,55,49,-100,-100,-100,0,0,100,0.00,40.00,0,-999,0,0.00
2013-5-13,58,48,36,-100,-100,-100,0,0,100,0.00,40.00,0,-999,0,0.00
2013-5-14,56,47,38,-100,-100,-100,0,0,100,0.00,40.00,0,-999,0,0.00
2013-5-15,64,50,31,-100,-100,-100,0,0,100,0.00,40.00,0,-999,0,0.00
2013-5-16,72,57,47,-100,-100,-100,0,0,100,0.00,40.00,0,-999,0,0.00
2013-5-17,64,53,40,-100,-100,-100,0,0,100,0.00,40.00,0,-999,0,0.00
2013-5-18,60,48,34,-100,-100,-100,0,0,100,0.00,40.00,0,-999,0,0.00
2013-5-19,59,48,36,-100,-100,-100,0,0,100,0.00,40.00,0,-999,0,0.00
2013-5-20,65,54,49,-100,-100,-100,0,0,100,0.00,40.00,0,-999,0,0.00
2013-5-21,54,50,48,-100,-100,-100,0,0,100,0.00,40.00,0,-999,0,0.00
2013-5-22,51,49,47,-100,-100,-100,0,0,100,0.00,40.00,0,-999,0,0.00
2013-5-23,63,55,47,-100,-100,-100,0,0,100,0.00,40.00,0,-999,0,0.00
2013-5-24,63,59,50,-100,-100,-100,0,0,100,0.00,40.00,0,-999,0,0.00
2013-5-25,51,49,48,-100,-100,-100,0,0,100,0.00,40.00,0,-999,0,0.00
2013-5-26,51,48,43,-100,-100,-100,0,0,100,0.00,40.00,0,-999,0,0.00
2013-5-27,67,52,37,-100,-100,-100,0,0,100,0.00,40.00,0,-999,0,0.00
2013-5-28,74,54,35,-100,-100,-100,0,0,100,0.00,40.00,0,-999,0,0.00
2013-5-29,54,50,43,-100,-100,-100,0,0,100,0.00,40.00,0,-999,0,0.00
2013-5-30,84,65,51,-100,-100,-100,0,0,100,0.00,40.00,0,-999,0,0.00
2013-5-31,91,72,54,-100,-100,-100,0,0,100,0.00,40.00,0,-999,0,0.00
2013-6-1,92,74,59,-100,-100,-100,0,0,100,0.00,40.00,0,-999,0,0.00
2013-6-2,83,72,65,-100,-100,-100,0,0,100,0.00,40.00,0,-999,0,0.00
2013-6-3,72,65,59,-100,-100,-100,0,0,100,0.00,40.00,0,-999,0,0.00
2013-6-4,69,59,48,-100,-100,-100,0,0,100,0.00,40.00,0,-999,0,0.00
2013-6-5,72,57,43,-100,-100,-100,0,0,100,0.00,40.00,0,-999,0,0.00
2013-6-6,67,57,43,-100,-100,-100,0,0,100,0.00,40.00,0,-999,0,0.00
2013-6-7,62,56,52,-100,-100,-100,0,0,100,0.00,40.00,0,-999,0,0.00
2013-6-8,63,57,53,-100,-100,-100,0,0,100,0.00,40.00,0,-999,0,0.00
2013-6-9,65,58,54,-100,-100,-100,0,0,100,0.00,40.00,0,-999,0,0.00
2013-6-10,68,58,48,-100,-100,-100,0,0,100,0.00,40.00,0,-999,0,0.00
2013-6-11,56,54,53,-100,-100,-100,0,0,100,0.00,40.00,0,-999,0,0.00
2013-6-12,58,55,53,-100,-100,-100,0,0,100,0.00,40.00,0,-999,0,0.00
2013-6-13,68,59,52,-100,-100,-100,0,0,100,0.00,40.00,0,-999,0,0.00
2013-6-14,65,58,52,-100,-100,-100,0,0,100,0.00,40.00,0,-999,0,0.00
2013-6-15,75,61,47,-100,-100,-100,0,0,100,0.00,40.00,0,-999,0,0.00
2013-6-16,75,66,47,-100,-100,-100,0,0,100,0.00,40.00,0,-999,0,0.00
2013-6-17,77,62,51,-100,-100,-100,0,0,100,0.00,40.00,0,-999,0,0.00
2013-6-18,65,59,53,-100,-100,-100,0,0,100,0.00,40.00,0,-999,0,0.00
2013-6-19,74,61,49,-100,-100,-100,0,0,100,0.00,40.00,0,-999,0,0.00
2013-6-20,75,60,44,-100,-100,-100,0,0,100,0.00,40.00,0,-999,0,0.00
2013-6-22,74,67,60,-100,-100,-100,0,0,100,0.00,40.00,0,-999,0,0.00
2013-6-23,71,64,59,-100,-100,-100,0,0,100,0.00,40.00,0,-999,0,0.00
2013-6-24,85,72,62,-100,-100,-100,0,0,100,0.00,40.00,0,-999,0,0.00
2013-6-25,87,75,65,-100,-100,-100,0,0,100,0.00,40.00,0,-999,0,0.00
2013-6-26,72,67,60,-100,-100,-100,0,0,100,0.00,40.00,0,-999,0,0.00
2013-6-27,61,57,55,-100,-100,-100,0,0,100,0.00,40.00,0,-999,0,0.00
2013-6-28,61,59,57,-100,-100,-100,0,0,100,0.00,40.00,0,-999,0,0.00
2013-6-29,68,62,59,-100,-100,-100,0,0,100,0.00,40.00,0,-999,0,0.00
2013-6-30,75,69,64,-100,-100,-100,0,0,100,0.00,40.00,0,-999,0,0.00
2013-7-1,75,67,63,-100,-100,-100,0,0,100,0.00,40.00,0,-999,0,0.00
2013-7-2,66,62,58,-100,-100,-100,0,0,100,0.00,40.00,0,-999,0,0.00
2013-7-3,73,65,58,-100,-100,-100,0,0,100,0.00,40.00,0,-999,0,0.00
2013-7-4,86,73,60,-100,-100,-100,0,0,100,0.00,40.00,0,-999,0,0.00
2013-7-5,87,76,65,-100,-100,-100,0,0,100,0.00,40.00,0,-999,0,0.00
2013-7-6,87,75,69,-100,-100,-100,0,0,100,0.00,40.00,0,-999,0,0.00
2013-7-7,85,75,62,-100,-100,-100,0,0,100,0.00,40.00,0,-999,0,0.00
2013-7-8,74,68,62,-100,-100,-100,0,0,100,0.00,40.00,0,-999,0,0.00
2013-7-9,69,65,62,-100,-100,-100,0,0,100,0.00,40.00,0,-999,0,0.00
2013-7-10,65,62,61,-100,-100,-100,0,0,100,0.00,40.00,0,-999,0,0.00
2013-7-11,74,68,63,-100,-100,-100,0,0,100,0.00,40.00,0,-999,0,0.00
2013-7-12,78,68,58,-100,-100,-100,0,0,100,0.00,40.00,0,-999,0,0.00
2013-7-13,81,67,53,-100,-100,-100,0,0,100,0.00,40.00,0,-999,0,0.00
2013-7-14,84,72,58,-100,-100,-100,0,0,100,0.00,40.00,0,-999,0,0.00
2013-7-15,89,74,61,-100,-100,-100,0,0,100,0.00,40.00,0,-999,0,0.00
2013-7-16,87,75,64,-100,-100,-100,0,0,100,0.00,40.00,0,-999,0,0.00
2013-7-17,84,72,63,-100,-100,-100,0,0,100,0.00,40.00,0,-999,0,0.00
2013-7-18,81,72,66,-100,-100,-100,0,0,100,0.00,40.00,0,-999,0,0.00
2013-7-19,87,75,67,-100,-100,-100,0,0,100,0.00,40.00,0,-999,0,0.00
2013-7-20,87,76,65,-100,-100,-100,0,0,100,0.00,40.00,0,-999,0,0.00
2013-7-21,73,65,57,-100,-100,-100,0,0,100,0.00,40.00,0,-999,0,0.00
2013-7-22,71,62,54,-100,-100,-100,0,0,100,0.00,40.00,0,-999,0,0.00
2013-7-23,68,63,56,-100,-100,-100,0,0,100,0.00,40.00,0,-999,0,0.00
2013-7-24,77,68,58,-100,-100,-100,0,0,100,0.00,40.00,0,-999,0,0.00
2013-7-25,70,62,52,-100,-100,-100,0,0,100,0.00,40.00,0,-999,0,0.00
2013-7-26,67,63,61,-100,-100,-100,0,0,100,0.00,40.00,0,-999,0,0.00
2013-7-27,78,68,62,-100,-100,-100,0,0,100,0.00,40.00,0,-999,0,0.00
2013-7-28,67,64,58,-100,-100,-100,0,0,100,0.00,40.00,0,-999,0,0.00
2013-7-29,71,66,63,-100,-100,-100,0,0,100,0.00,40.00,0,-999,0,0.00
2013-7-30,77,68,58,-100,-100,-100,0,0,100,0.00,40.00,0,-999,0,0.00
2013-7-31,79,66,52,-100,-100,-100,0,0,100,0.00,40.00,0,-999,0,0.00
2013-8-1,75,64,55,-100,-100,-100,0,0,100,0.00,40.00,0,-999,0,0.00
2013-8-2,68,64,59,-100,-100,-100,0,0,100,0.00,40.00,0,-999,0,0.00
2013-8-3,74,63,54,-100,-100,-100,0,0,100,0.00,40.00,0,-999,0,0.00
2013-8-4,75,63,53,-100,-100,-100,0,0,100,0.00,40.00,0,-999,0,0.00
2013-8-5,71,61,53,-100,-100,-100,0,0,100,0.00,40.00,0,-999,0,0.00
2013-8-6,77,61,45,-100,-100,-100,0,0,100,0.00,40.00,0,-999,0,0.00
2013-8-7,73,61,48,-100,-100,-100,0,0,100,0.00,40.00,0,-999,0,0.00
2013-8-8,64,61,56,-100,-100,-100,0,0,100,0.00,40.00,0,-999,0,0.00
2013-8-9,70,66,61,-100,-100,-100,0,0,100,0.00,40.00,0,-999,0,0.00
2013-8-10,77,67,55,-100,-100,-100,0,0,100,0.00,40.00,0,-999,0,0.00
2013-8-11,75,62,48,-100,-100,-100,0,0,100,0.00,40.00,0,-999,0,0.00
2013-8-12,75,64,53,-100,-100,-100,0,0,100,0.00,40.00,0,-999,0,0.00
2013-8-13,70,62,53,-100,-100,-100,0,0,100,0.00,40.00,0,-999,0,0.00
2013-8-14,71,64,56,-100,-100,-100,0,0,100,0.00,40.00,0,-999,0,0.00
2013-8-15,73,59,49,-100,-100,-100,0,0,100,0.00,40.00,0,-999,0,0.00
2013-8-16,73,61,49,-100,-100,-100,0,0,100,0.00,40.00,0,-999,0,0.00
2013-8-17,76,61,49,-100,-100,-100,0,0,100,0.00,40.00,0,-999,0,0.00
2013-8-18,74,62,48,-100,-100,-100,0,0,100,0.00,40.00,0,-999,0,0.00
2013-8-19,80,65,52,-100,-100,-100,0,0,100,0.00,40.00,0,-999,0,0.00
2013-8-20,80,68,58,-100,-100,-100,0,0,100,0.00,40.00,0,-999,0,0.00
2013-8-21,83,69,58,-100,-100,-100,0,0,100,0.00,40.00,0,-999,0,0.00
2013-8-22,84,72,59,-100,-100,-100,0,0,100,0.00,40.00,0,-999,0,0.00
2013-8-23,76,68,56,-100,-100,-100,0,0,100,0.00,40.00,0,-999,0,0.00
2013-8-24,77,60,45,-100,-100,-100,0,0,100,0.00,40.00,0,-999,0,0.00
2013-8-25,76,61,46,-100,-100,-100,0,0,100,0.00,40.00,0,-999,0,0.00
2013-8-26,74,64,54,-100,-100,-100,0,0,100,0.00,40.00,0,-999,0,0.00
2013-8-27,79,67,58,-100,-100,-100,0,0,100,0.00,40.00,0,-999,0,0.00
2013-8-28,77,70,65,-100,-100,-100,0,0,100,0.00,40.00,0,-999,0,0.00
2013-8-29,65,62,52,-100,-100,-100,0,0,100,0.00,40.00,0,-999,0,0.00
2013-8-30,70,60,47,-100,-100,-100,0,0,100,0.00,40.00,0,-999,0,0.00
2013-8-31,76,67,61,-100,-100,-100,0,0,100,0.00,40.00,0,-999,0,0.00
2013-9-1,77,69,64,-100,-100,-100,0,0,100,0.00,40.00,0,-999,0,0.00
2013-9-2,67,64,62,-100,-100,-100,0,0,100,0.00,40.00,0,-999,0,0.00
2013-9-3,73,67,64,-100,-100,-100,0,0,100,0.00,40.00,0,-999,0,0.00
2013-9-4,75,66,59,-100,-100,-100,0,0,100,0.00,40.00,0,-999,0,0.00
2013-9-5,62,57,46,-100,-100,-100,0,0,100,0.00,40.00,0,-999,0,0.00
2013-9-6,66,51,38,-100,-100,-100,0,0,100,0.00,40.00,0,-999,0,0.00
2013-9-7,72,59,47,-100,-100,-100,0,0,100,0.00,40.00,0,-999,0,0.00
2013-9-8,63,58,44,-100,-100,-100,0,0,100,0.00,40.00,0,-999,0,0.00
2013-9-9,64,50,37,-100,-100,-100,0,0,100,0.00,40.00,0,-999,0,0.00
2013-9-10,65,58,49,-100,-100,-100,0,0,100,0.00,40.00,0,-999,0,0.00
2013-9-11,77,67,59,-100,-100,-100,0,0,100,0.00,40.00,0,-999,0,0.00
2013-9-12,71,67,64,-100,-100,-100,0,0,100,0.00,40.00,0,-999,0,0.00
2013-9-13,66,64,59,-100,-100,-100,0,0,100,0.00,40.00,0,-999,0,0.00
2013-9-14,67,60,51,-100,-100,-100,0,0,100,0.00,40.00,0,-999,0,0.00
2013-9-15,67,52,44,-100,-100,-100,0,0,100,0.00,40.00,0,-999,0,0.00
2013-9-16,61,54,44,-100,-100,-100,0,0,100,0.00,40.00,0,-999,0,0.00
2013-9-17,64,48,37,-100,-100,-100,0,0,100,0.00,40.00,0,-999,0,0.00
2013-9-18,43,40,38,-100,-100,-100,0,0,100,0.00,40.00,0,-999,0,0.00
2013-9-19,73,59,42,-100,-100,-100,0,0,100,0.00,40.00,0,-999,0,0.00
2013-9-20,71,58,43,-100,-100,-100,0,0,100,0.00,40.00,0,-999,0,0.00
2013-9-21,66,60,52,-100,-100,-100,0,0,100,0.00,40.00,0,-999,0,0.00
2013-9-22,66,63,54,-100,-100,-100,0,0,100,0.00,40.00,0,-999,0,0.00
2013-9-23,57,50,45,-100,-100,-100,0,0,100,0.00,40.00,0,-999,0,0.00
2013-9-24,51,48,43,-100,-100,-100,0,0,100,0.00,40.00,0,-999,0,0.00
2013-9-25,59,52,45,-100,-100,-100,0,0,100,0.00,40.00,0,-999,0,0.00
2013-9-26,62,54,45,-100,-100,-100,0,0,100,0.00,40.00,0,-999,0,0.00
2013-9-27,71,58,48,-100,-100,-100,0,0,100,0.00,40.00,0,-999,0,0.00
2013-9-28,70,55,43,-100,-100,-100,0,0,100,0.00,40.00,0,-999,0,0.00
2013-9-29,66,56,44,-100,-100,-100,0,0,100,0.00,40.00,0,-999,0,0.00
2013-9-30,62,49,39,-100,-100,-100,0,0,100,0.00,40.00,0,-999,0,0.00
2013-10-1,56,51,45,-100,-100,-100,0,0,100,0.00,40.00,0,-999,0,0.00
2013-10-2,78,67,48,-100,-100,-100,0,0,100,0.00,40.00,0,-999,0,0.00
2013-10-3,74,68,60,-100,-100,-100,0,0,100,0.00,40.00,0,-999,0,0.00
2013-10-4,69,58,42,-100,-100,-100,0,0,100,0.00,40.00,0,-999,0,0.00
2013-10-5,60,53,46,-100,-100,-100,0,0,100,0.00,40.00,0,-999,0,0.00
2013-10-6,58,49,41,-100,-100,-100,0,0,100,0.00,40.00,0,-999,0,0.00
2013-10-7,66,57,47,-100,-100,-100,0,0,100,0.00,40.00,0,-999,0,0.00
2013-10-8,66,54,38,-100,-100,-100,0,0,100,0.00,40.00,0,-999,0,0.00
2013-10-9,60,48,32,-100,-100,-100,0,0,100,0.00,40.00,0,-999,0,0.00
2013-10-10,63,52,36,-100,-100,-100,0,0,100,0.00,40.00,0,-999,0,0.00
2013-10-11,71,54,40,-100,-100,-100,0,0,100,0.00,40.00,0,-999,0,0.00
2013-10-12,59,52,41,-100,-100,-100,0,0,100,0.00,40.00,0,-999,0,0.00
2013-10-13,58,48,39,-100,-100,-100,0,0,100,0.00,40.00,0,-999,0,0.00
2013-10-14,64,56,43,-100,-100,-100,0,0,100,0.00,40.00,0,-999,0,0.00
2013-10-15,66,54,46,-100,-100,-100,0,0,100,0.00,40.00,0,-999,0,0.00
2013-10-16,57,53,49,-100,-100,-100,0,0,100,0.00,40.00,0,-999,0,0.00
2013-10-17,66,55,50,-100,-100,-100,0,0,100,0.00,40.00,0,-999,0,0.00
2013-10-18,66,54,46,-100,-100,-100,0,0,100,0.00,40.00,0,-999,0,0.00
2013-10-19,65,55,46,-100,-100,-100,0,0,100,0.00,40.00,0,-999,0,0.00
2013-10-20,63,53,42,-100,-100,-100,0,0,100,0.00,40.00,0,-999,0,0.00
2013-10-21,62,53,42,-100,-100,-100,0,0,100,0.00,40.00,0,-999,0,0.00
2013-10-22,62,55,44,-100,-100,-100,0,0,100,0.00,40.00,0,-999,0,0.00
2013-10-23,54,42,31,-100,-100,-100,0,0,100,0.00,40.00,0,-999,0,0.00
2013-10-24,50,41,31,-100,-100,-100,0,0,100,0.00,40.00,0,-999,0,0.00
2013-10-25,52,40,31,-100,-100,-100,0,0,100,0.00,40.00,0,-999,0,0.00
2013-10-26,50,39,27,-100,-100,-100,0,0,100,0.00,40.00,0,-999,0,0.00
2013-10-27,55,45,35,-100,-100,-100,0,0,100,0.00,40.00,0,-999,0,0.00
2013-10-28,56,41,29,-100,-100,-100,0,0,100,0.00,40.00,0,-999,0,0.00
2013-10-29,47,32,24,-100,-100,-100,0,0,100,0.00,40.00,0,-999,0,0.00
2013-10-30,46,33,23,-100,-100,-100,0,0,100,0.00,40.00,0,-999,0,0.00
2013-10-31,57,39,23,-100,-100,-100,0,0,100,0.00,40.00,0,-999,0,0.00
2013-11-1,65,59,56,-100,-100,-100,0,0,100,0.00,40.00,0,-999,0,0.00
2013-11-2,62,50,38,-100,-100,-100,0,0,100,0.00,40.00,0,-999,0,0.00
2013-11-3,46,37,27,-100,-100,-100,0,0,100,0.00,40.00,0,-999,0,0.00
2013-11-4,41,29,22,-100,-100,-100,0,0,100,0.00,40.00,0,-999,0,0.00
2013-11-5,45,30,20,-100,-100,-100,0,0,100,0.00,40.00,0,-999,0,0.00
2013-11-6,53,49,45,-100,-100,-100,0,0,100,0.00,40.00,0,-999,0,0.00
2013-11-7,60,51,35,-100,-100,-100,0,0,100,0.00,40.00,0,-999,0,0.00
2013-11-8,45,37,31,-100,-100,-100,0,0,100,0.00,40.00,0,-999,0,0.00
2013-11-9,44,35,26,-100,-100,-100,0,0,100,0.00,40.00,0,-999,0,0.00
2013-11-10,43,35,27,-100,-100,-100,0,0,100,0.00,40.00,0,-999,0,0.00
2013-11-11,45,37,31,-100,-100,-100,0,0,100,0.00,40.00,0,-999,0,0.00
2013-11-12,41,32,22,-100,-100,-100,0,0,100,0.00,40.00,0,-999,0,0.00
2013-11-13,34,26,19,-100,-100,-100,0,0,100,0.00,40.00,0,-999,0,0.00
2013-11-14,45,33,22,-100,-100,-100,0,0,100,0.00,40.00,0,-999,0,0.00
2013-11-15,48,42,23,-100,-100,-100,0,0,100,0.00,40.00,0,-999,0,0.00
2013-11-16,50,44,34,-100,-100,-100,0,0,100,0.00,40.00,0,-999,0,0.00
2013-11-17,51,42,29,-100,-100,-100,0,0,100,0.00,40.00,0,-999,0,0.00
2013-11-18,58,54,45,-100,-100,-100,0,0,100,0.00,40.00,0,-999,0,0.00
2013-11-19,39,35,31,-100,-100,-100,0,0,100,0.00,40.00,0,-999,0,0.00
2013-11-20,38,30,22,-100,-100,-100,0,0,100,0.00,40.00,0,-999,0,0.00
2013-11-21,46,36,21,-100,-100,-100,0,0,100,0.00,40.00,0,-999,0,0.00
2013-11-22,41,34,25,-100,-100,-100,0,0,100,0.00,40.00,0,-999,0,0.00
2013-11-23,40,33,25,-100,-100,-100,0,0,100,0.00,40.00,0,-999,0,0.00
2013-11-24,27,22,19,-100,-100,-100,0,0,100,0.00,40.00,0,-999,0,0.00
2013-11-25,28,20,16,-100,-100,-100,0,0,100,0.00,40.00,0,-999,0,0.00
2013-11-26,32,30,21,-100,-100,-100,0,0,100,0.00,40.00,0,-999,0,0.00
2013-11-27,57,47,31,-100,-100,-100,0,0,100,0.00,40.00,0,-999,0,0.00
2013-11-28,41,30,20,-100,-100,-100,0,0,100,0.00,40.00,0,-999,0,0.00
2013-11-29,25,19,12,-100,-100,-100,0,0,100,0.00,40.00,0,-999,0,0.00
2013-11-30,27,18,8,-100,-100,-100,0,0,100,0.00,40.00,0,-999,0,0.00
2013-12-1,33,30,24,-100,-100,-100,0,0,100,0.00,40.00,0,-999,0,0.00
2013-12-2,38,36,32,-100,-100,-100,0,0,100,0.00,40.00,0,-999,0,0.00
2013-12-3,40,36,31,-100,-100,-100,0,0,100,0.00,40.00,0,-999,0,0.00
2013-12-4,40,32,25,-100,-100,-100,0,0,100,0.00,40.00,0,-999,0,0.00
2013-12-5,44,32,22,-100,-100,-100,0,0,100,0.00,40.00,0,-999,0,0.00
2013-12-6,47,41,34,-100,-100,-100,0,0,100,0.00,40.00,0,-999,0,0.00
2013-12-7,36,31,23,-100,-100,-100,0,0,100,0.00,40.00,0,-999,0,0.00
2013-12-8,26,21,16,-100,-100,-100,0,0,100,0.00,40.00,0,-999,0,0.00
2013-12-9,32,26,20,-100,-100,-100,0,0,100,0.00,40.00,0,-999,0,0.00
2013-12-10,32,26,18,-100,-100,-100,0,0,100,0.00,40.00,0,-999,0,0.00
2013-12-11,26,18,10,-100,-100,-100,0,0,100,0.00,40.00,0,-999,0,0.00
2013-12-12,14,9,3,-100,-100,-100,0,0,100,0.00,40.00,0,-999,0,0.00
2013-12-13,24,13,2,-100,-100,-100,0,0,100,0.00,40.00,0,-999,0,0.00
2013-12-14,11,5,-3,-100,-100,-100,0,0,100,0.00,40.00,0,-999,0,0.00
2013-12-15,18,13,9,-100,-100,-100,0,0,100,0.00,40.00,0,-999,0,0.00
2013-12-16,20,11,1,-100,-100,-100,0,0,100,0.00,40.00,0,-999,0,0.00
2013-12-17,13,8,-6,-100,-100,-100,0,0,100,0.00,40.00,0,-999,0,0.00
2013-12-18,22,16,12,-100,-100,-100,0,0,100,0.00,40.00,0,-999,0,0.00
2013-12-19,31,28,22,-100,-100,-100,0,0,100,0.00,40.00,0,-999,0,0.00
2013-12-20,35,29,21,-100,-100,-100,0,0,100,0.00,40.00,0,-999,0,0.00
2013-12-21,33,30,25,-100,-100,-100,0,0,100,0.00,40.00,0,-999,0,0.00
2013-12-22,31,29,26,-100,-100,-100,0,0,100,0.00,40.00,0,-999,0,0.00
2013-12-23,32,30,27,-100,-100,-100,0,0,100,0.00,40.00,0,-999,0,0.00
2013-12-24,32,24,12,-100,-100,-100,0,0,100,0.00,40.00,0,-999,0,0.00
2013-12-25,16,9,1,-100,-100,-100,0,0,100,0.00,40.00,0,-999,0,0.00
2013-12-26,26,18,1,-100,-100,-100,0,0,100,0.00,40.00,0,-999,0,0.00
2013-12-27,30,20,11,-100,-100,-100,0,0,100,0.00,40.00,0,-999,0,0.00
2013-12-28,32,28,22,-100,-100,-100,0,0,100,0.00,40.00,0,-999,0,0.00
2013-12-29,34,28,18,-100,-100,-100,0,0,100,0.00,40.00,0,-999,0,0.00
2013-12-30,27,18,1,-100,-100,-100,0,0,100,0.00,40.00,0,-999,0,0.00
2013-12-31,9,2,-6,-100,-100,-100,0,0,100,0.00,40.00,0,-999,0,0.00
2014-1-1,15,10,-5,-100,-100,-100,0,0,100,0.00,40.00,0,-999,0,0.00
2014-1-2,2,-5,-9,-100,-100,-100,0,0,100,0.00,40.00,0,-999,0,0.00